Location: Santaluz Observatory
(32.9930°N, 117.1510°W)
Time: 03:15:42
(UTC-07:00)

HST - Visible Passes

Search period start: 21 April 2014 00:00
Search period end: 01 May 2014 00:00
Orbit: 548 x 553 km, 28.5° (Epoch: 20 April)

Date Brightness Start Highest point End Pass type
(mag) Time Alt. Az. Time Alt. Az. Time Alt. Az.
21 Apr 1.7 21:07:29 10° WSW 21:11:07 36° SSW 21:11:07 36° SSW visible
22 Apr 1.8 21:01:04 10° WSW 21:04:48 31° SSW 21:04:58 31° S visible
23 Apr 2.1 20:54:41 10° WSW 20:58:14 27° SSW 20:58:49 26° S visible
24 Apr 2.4 20:48:22 10° WSW 20:51:38 22° SSW 20:52:40 20° S visible
25 Apr 2.7 20:42:09 10° WSW 20:45:01 18° SSW 20:46:31 15° S visible
26 Apr 3.1 20:36:10 10° SW 20:38:22 14° SSW 20:40:23 11° S visible
27 Apr 3.3 20:30:52 10° SW 20:31:42 11° SSW 20:32:32 10° SSW visible
